PRAETORIAN SDA_606

Last updated on Thu Sep 10 2026 00:03:39 GMT+0000 (Coordinated Universal Time)

1 65569U 25203E 26252.57824998 .00000059 00000+0 42868-4 0 9997 2 65569 81.3036 292.9866 0005432 335.5403 24.5494 13.83210620 50350
UTC large
Height (km)
Speed (km/s)
/
Latitude / Longitude
Inclination (degrees)
Orbital Period (minutes)
Azimuth
Elevation
Range (km)
Doppler Factor

Next 0 passes for location: London (51.5072 / 0.1276)

No passes found over London.
PRAETORIAN SDA_606